Theta_e
334 339 345 343 342 344 345 345 343 343 343 341 340 340 341 341 342 343 344 347 347 345 343 340 340 339 338 338 338 338 338 338 340 339 339 338 339 339 339 338 339 335 340
337 338 344 346 344 344 345 346 344 344 342 340 340 340 340 340 341 342 344 346 345 343 341 339 337 336 336 336 336 336 337 339 340 338 338 338 339 337 337 336 336 334 337
337 339 343 347 345 345 346 346 344 343 340 339 338 338 338 338 339 341 343 345 344 341 339 337 336 336 335 335 336 336 337 339 338 337 336 329 330 336 337 337 338 336 337
337 339 341 346 347 346 346 346 345 343 340 338 337 336 335 336 338 339 342 343 340 337 337 336 335 335 335 336 335 336 339 338 336 334 327 327 329 336 337 337 339 339 338
338 340 342 346 348 347 347 346 345 344 342 341 338 335 334 335 337 338 339 339 336 336 335 334 334 335 334 335 335 335 339 339 336 332 332 331 331 337 340 337 336 335 336
340 342 343 347 349 348 347 347 345 343 342 340 339 335 333 334 335 336 337 336 334 332 332 332 333 333 333 333 333 334 339 336 332 327 328 332 332 337 336 334 332 331 332
338 342 345 347 348 347 347 347 346 345 341 340 339 336 333 333 333 333 334 332 330 329 330 331 331 331 331 331 331 332 335 331 322 321 322 325 327 332 331 333 332 332 331
339 341 344 340 343 345 345 346 346 345 344 341 339 337 334 332 331 331 331 329 328 327 328 330 330 329 330 331 333 334 332 328 322 320 319 321 329 333 335 333 330 328 327
340 338 339 341 341 338 341 341 342 343 343 341 340 339 337 335 334 332 331 328 326 326 327 328 329 329 331 331 332 331 329 328 324 326 327 328 334 335 333 330 327 325 324
336 338 337 338 340 340 339 335 337 339 340 339 338 335 333 332 332 331 328 328 326 325 326 328 328 329 328 329 330 328 326 326 321 323 326 329 333 332 331 328 324 323 322
334 335 336 338 338 337 339 335 333 335 335 334 332 329 326 327 325 325 326 327 326 325 326 327 327 325 324 325 326 324 322 319 320 323 324 329 329 329 328 324 323 322 320
330 333 336 338 338 337 338 337 338 338 336 335 332 328 329 327 326 323 321 324 325 325 325 326 324 324 320 315 315 320 317 314 316 318 321 326 326 327 325 322 321 320 319
330 334 334 336 337 337 337 338 337 338 337 336 332 329 330 326 324 321 318 316 315 316 315 315 316 315 314 313 313 314 315 313 312 312 316 324 324 323 323 321 320 319 318
327 330 333 335 336 337 338 337 336 336 336 336 335 331 330 328 324 321 318 316 314 313 311 312 312 311 310 311 309 308 309 310 310 310 312 319 322 321 320 320 319 318 317
325 328 330 332 335 335 336 338 336 336 335 335 335 334 333 330 325 322 322 320 317 317 315 311 309 308 307 307 305 305 305 304 305 306 305 314 318 318 319 318 318 317 316
325 326 330 330 332 334 334 333 335 336 336 335 335 334 333 331 328 325 323 320 318 318 315 312 307 305 303 301 300 300 300 301 302 303 301 304 314 315 316 316 316 315 315
324 326 328 330 331 331 332 332 334 333 335 336 335 334 332 331 329 325 321 319 318 315 310 306 303 301 300 297 294 294 295 295 297 300 299 298 299 310 312 313 313 313 313
323 326 327 330 330 329 329 329 329 330 332 332 334 335 332 331 329 325 321 319 317 311 306 304 302 300 296 295 291 291 291 291 292 293 295 295 295 297 304 308 309 309 310
322 326 326 326 326 328 327 327 327 327 329 329 331 332 333 332 329 325 321 318 315 309 305 302 300 299 296 294 291 290 289 289 289 290 289 290 293 293 294 302 303 305 306
318 323 326 326 324 323 323 323 324 325 328 329 329 329 333 332 330 326 322 317 313 309 305 302 300 299 294 294 292 289 288 288 288 286 286 288 288 288 289 291 292 295 302
313 318 324 324 322 321 320 319 317 318 317 320 323 326 327 327 327 326 321 314 312 309 306 304 300 297 293 293 290 286 286 286 286 286 286 285 286 287 287 287 287 288 291
310 314 317 321 320 320 320 318 316 314 313 317 316 319 322 323 324 323 318 314 313 311 307 303 299 295 293 292 289 286 281 283 284 286 285 286 284 285 285 286 286 287 287
306 309 312 315 317 317 315 314 311 311 309 308 312 315 315 317 319 319 316 313 312 311 307 303 299 296 291 291 292 290 283 282 281 283 284 285 284 284 283 284 285 286 286
306 308 310 309 309 311 312 312 311 310 309 308 309 311 313 312 314 314 314 311 311 310 307 303 300 297 294 291 292 295 290 285 281 277 282 283 284 284 282 283 283 284 284
304 304 305 307 308 309 310 311 310 309 307 305 306 306 307 306 309 309 310 309 309 309 307 303 299 298 296 294 294 292 289 287 286 280 277 279 281 283 283 282 283 282 283
304 304 304 305 306 308 309 310 309 309 304 304 305 304 304 303 304 303 304 307 309 308 306 303 301 299 297 296 296 293 289 286 284 282 279 278 279 280 282 283 282 282 282
Wind_Speed
11 13 10 11 5 9 7 11 11 10 11 14 14 15 15 15 15 14 13 18 19 21 21 20 20 20 21 21 20 19 21 22 23 24 24 24 25 25 24 22 21 18 26
12 13 12 11 10 10 10 12 11 10 12 14 14 14 14 15 14 14 14 17 20 20 19 20 19 20 20 20 18 17 16 12 17 21 21 23 23 25 25 24 23 22 26
13 14 10 9 9 12 11 13 11 11 13 13 14 14 14 14 14 14 15 17 19 20 18 19 19 20 19 18 16 15 14 12 16 18 17 12 15 25 24 23 23 25 26
14 14 11 11 11 13 13 12 12 12 13 14 13 14 14 15 15 15 16 18 19 18 18 18 19 19 19 17 14 14 17 23 21 17 9 11 14 24 24 25 26 25 26
12 14 12 12 13 14 13 13 13 12 13 14 13 14 14 15 15 15 15 17 17 17 17 18 19 19 17 15 14 14 15 21 19 13 11 10 11 21 27 27 25 26 25
11 13 15 15 14 15 14 14 13 14 13 14 14 14 14 15 16 15 16 18 17 16 17 18 19 18 15 14 15 16 21 22 16 11 11 14 14 26 26 26 26 25 24
9 13 12 14 14 15 14 13 13 13 14 14 15 15 15 15 15 16 16 17 17 17 18 18 18 17 16 14 14 14 21 18 10 10 10 11 14 21 23 26 25 26 27
12 12 11 11 11 14 14 13 12 13 13 14 14 15 15 15 15 16 17 17 17 17 18 18 18 17 15 17 18 19 16 15 10 8 7 5 15 21 26 26 26 26 25
13 11 9 8 9 11 12 11 10 12 14 13 13 14 13 13 14 15 15 16 17 17 18 18 18 18 18 18 21 22 21 17 10 8 8 6 21 26 26 26 25 24 24
9 11 10 9 9 7 7 10 10 10 13 12 13 12 12 13 12 12 12 15 17 17 18 18 18 18 16 16 15 17 14 14 7 6 6 10 22 24 24 24 22 24 25
8 8 9 10 9 9 8 8 9 11 12 13 12 13 11 6 9 8 10 14 16 17 18 18 17 16 14 14 13 18 12 6 6 6 6 16 21 22 23 20 22 23 23
9 8 9 11 10 10 9 9 7 8 7 8 8 9 6 7 7 8 9 12 14 15 17 17 16 12 7 4 4 10 6 7 7 6 6 15 19 20 21 21 22 21 22
9 8 8 11 10 11 8 8 5 5 6 6 9 7 7 8 8 6 4 4 5 6 5 6 5 3 6 5 5 5 7 6 5 6 9 11 17 17 20 20 20 20 21
9 9 11 11 9 9 8 8 7 6 6 6 8 9 7 6 7 8 6 6 5 4 5 5 4 6 7 7 6 7 6 6 5 5 8 11 16 18 18 18 19 19 20
10 11 9 10 12 8 10 8 7 7 6 7 8 9 9 8 7 6 8 7 5 4 4 5 5 6 6 7 6 7 7 7 7 4 5 15 15 16 16 17 17 18 19
11 10 11 9 7 7 6 7 6 6 7 6 8 9 9 8 8 9 6 6 5 4 5 5 3 5 6 6 6 6 6 6 6 6 5 8 15 14 16 16 15 16 17
7 9 11 13 9 9 9 8 7 5 7 7 6 8 9 10 10 9 7 7 5 5 8 7 5 3 8 6 6 6 5 6 5 6 5 5 7 14 15 15 15 15 16
8 10 9 9 10 8 7 6 5 5 5 5 6 8 12 10 11 9 8 8 7 7 7 9 6 4 6 9 5 4 5 5 6 6 5 4 5 6 9 14 14 14 14
10 10 10 10 10 10 7 6 6 6 5 5 5 6 12 12 11 10 9 9 10 8 8 8 5 6 7 9 7 5 4 4 4 5 6 6 7 5 5 13 14 12 13
10 9 11 9 10 8 5 4 4 4 4 3 4 5 10 11 14 11 9 11 10 9 8 8 11 5 5 9 10 6 4 4 4 4 5 4 5 5 4 5 5 5 11
10 10 14 13 12 10 7 7 4 6 3 3 3 6 8 7 9 13 10 11 11 11 13 12 8 10 6 9 9 4 3 3 4 4 4 4 5 5 5 4 3 2 4
14 10 10 13 13 12 9 7 5 5 3 4 3 4 6 9 11 11 12 13 13 10 11 12 14 8 3 9 5 4 4 2 1 3 4 5 6 4 4 4 4 4 4
12 13 12 13 14 13 11 6 4 3 3 4 6 6 5 7 9 12 13 12 14 12 13 15 14 15 8 10 11 8 5 5 4 2 3 4 6 4 4 4 4 4 4
17 14 12 10 9 12 13 11 14 11 9 6 7 6 7 8 9 10 13 13 13 11 13 14 13 13 9 11 7 2 3 7 5 3 2 4 5 6 6 4 4 3 4
9 10 9 10 10 11 13 13 11 10 6 4 6 9 9 8 8 8 10 12 13 11 13 16 15 13 10 10 8 5 2 2 4 5 4 4 2 4 5 5 5 4 3
7 8 8 10 11 12 13 14 13 12 7 6 7 8 7 6 6 8 8 11 12 12 14 13 15 16 13 9 7 5 5 6 5 5 4 3 5 4 4 5 5 5 4
Wind_Direction
154 142 168 146 174 149 152 121 104 89 90 90 85 83 83 84 81 80 73 82 88 84 82 79 76 76 78 79 83 83 83 85 81 72 69 71 70 67 67 65 61 61 60
137 139 160 153 166 151 158 115 103 98 96 94 90 88 85 85 83 80 72 88 86 84 81 79 78 79 80 81 82 79 81 91 84 80 73 69 70 72 69 67 68 68 67
134 137 154 158 152 150 135 117 117 109 101 96 94 94 92 91 91 85 77 84 85 84 83 80 82 83 82 84 78 66 56 65 80 80 80 76 72 72 73 72 69 68 68
139 140 152 154 146 143 131 126 120 112 110 105 103 100 97 96 95 91 84 86 85 87 86 86 86 85 85 84 73 62 73 75 67 59 65 71 72 76 78 73 70 70 68
145 145 145 145 145 139 135 130 124 122 118 111 106 101 100 100 98 95 92 88 90 89 91 90 88 86 81 80 64 48 62 75 64 57 55 69 81 79 75 69 64 61 61
140 128 140 141 144 142 142 136 135 129 122 114 110 106 104 102 101 101 98 96 95 95 92 92 89 85 81 68 53 39 94 81 73 66 63 71 76 77 74 69 66 61 61
133 122 135 138 146 146 146 142 140 135 125 117 113 111 109 108 106 103 101 102 101 99 99 95 92 88 84 60 45 51 80 80 76 66 61 65 71 77 78 79 77 74 70
127 129 134 142 142 149 150 150 145 135 126 119 116 115 114 113 112 110 109 105 104 103 101 98 94 91 82 63 57 58 70 77 74 67 64 71 94 92 88 85 74 70 69
130 131 138 148 152 151 150 152 148 140 129 125 122 117 112 111 111 110 109 110 109 107 105 101 99 97 81 73 70 70 71 71 71 75 76 72 88 88 83 79 77 77 72
129 144 147 152 154 149 154 154 152 147 134 129 112 107 102 98 99 99 103 113 114 112 109 106 102 92 77 70 72 67 63 68 56 60 61 75 92 86 83 83 82 74 71
141 156 160 159 164 159 153 163 159 151 142 128 127 131 128 133 120 101 104 111 113 111 111 109 105 94 73 62 67 69 61 60 60 61 72 79 84 84 86 85 79 76 75
154 168 178 162 170 170 170 152 165 158 153 151 151 165 153 131 125 104 98 105 111 113 116 117 118 111 86 74 56 80 72 50 48 43 69 82 90 95 94 83 79 79 77
168 183 170 175 171 181 168 161 171 166 168 168 160 186 123 119 126 118 119 108 110 115 125 120 130 77 70 66 54 70 75 72 54 40 16 93 100 93 85 85 84 80 78
184 188 171 175 182 180 159 168 174 169 173 177 173 178 149 145 143 147 151 151 158 156 161 115 91 87 74 67 67 72 75 59 53 41 18 52 92 90 93 90 85 83 78
190 188 191 173 184 190 168 169 173 177 176 176 172 184 163 162 156 168 160 159 163 155 134 117 121 113 96 80 62 66 75 77 73 50 31 44 76 92 95 90 88 84 80
187 188 177 192 187 164 168 174 172 173 172 173 176 187 174 164 163 173 158 143 146 135 112 116 104 113 106 100 96 85 82 86 84 68 45 37 53 79 88 88 87 85 82
192 183 177 183 193 179 187 185 187 192 171 177 173 165 161 167 172 159 149 150 150 125 115 105 105 101 116 94 85 82 82 80 81 93 74 54 35 51 79 85 84 84 83
189 187 175 175 184 193 190 192 188 178 181 180 173 173 171 175 172 163 156 157 150 131 131 136 148 135 131 121 114 92 85 81 80 74 86 85 60 39 55 77 78 80 83
195 184 186 175 182 187 199 182 198 195 183 182 178 165 175 176 174 171 168 160 154 144 145 148 138 154 147 129 119 106 100 97 92 77 74 80 93 73 49 73 60 69 77
197 191 188 179 176 181 180 191 193 185 171 165 199 162 169 182 179 173 170 158 157 153 152 155 156 160 146 139 121 106 102 102 103 109 110 92 101 118 120 90 52 40 78
192 197 189 184 181 177 186 188 192 195 174 176 186 181 161 171 180 178 170 162 165 166 167 165 152 151 143 141 109 72 59 108 124 142 133 128 117 112 111 105 112 82 52
194 192 191 191 183 186 190 192 186 172 187 189 160 193 172 173 184 186 169 171 171 166 164 166 155 149 165 177 129 121 150 313 227 181 151 146 142 135 121 114 113 106 108
185 191 197 196 189 186 184 175 169 140 93 162 200 196 196 187 183 186 176 173 171 170 170 169 169 168 176 195 180 143 148 197 135 209 182 165 157 155 148 138 128 117 112
194 190 189 187 184 189 186 187 193 196 194 194 190 200 199 196 191 184 177 172 174 175 177 177 175 174 164 189 182 235 126 142 157 153 235 193 172 168 166 177 152 146 140
176 182 181 180 187 187 192 195 193 201 195 155 173 185 191 193 191 189 181 174 178 182 186 178 177 185 186 179 193 144 132 183 136 140 171 194 181 183 175 171 165 166 158
169 171 175 182 196 191 192 199 198 202 181 183 177 180 186 186 186 193 186 182 185 186 180 185 185 191 186 189 197 163 166 162 185 147 126 128 172 207 172 171 168 170 177